Weather in Granada

Spain     37°09′58″N   3°36′12″W
temp.,
°C
wind,
m/s
gust,
m/s
humid.,
%
clouds,
%
prec.,
mm/h
press.,
hPa
HPBL,
m
25 january, tue
tue2501:00+2ene33836 0.0 102972
04:00+2ene33826 0.0 102865
07:00+1ene34824 0.0 102965
10:00+4ene347540 0.0 1028304
13:00+8nne135576 0.0 10261018
16:00+8nne335667 0.0 1024956
19:00+5ene347243 0.0 1026132
22:00+4ene347966 0.0 102884
26 january, wed
wed2601:00+4ene347947 0.0 1028132
04:00+3ene3484100 0.0 1028102
07:00+3ene348994 0.0 1027148
10:00+5ene237841 0.1 1027281
13:00+8e236167 0.1 1025970
16:00+8ne116794 0.1 1023926
19:00+6ene3482100 0.3 1025342
22:00+5ene2287100 0.1 1026212
27 january, thu
thu2701:00+4e2291100 1.4 1026299
04:00+4ene2487100 1.0 1025241
07:00+4ene3491100 1.1 1025227
10:00+5ene2383100 0.9 1026393
13:00+6ene1370100 1.1 1026832
16:00+8ene236061 0.1 1024999
19:00+6ene346955 0.1 1025120
22:00+3e237525 0.0 102749
28 january, fri
fri2801:00+2ene22795 0.0 102839
04:00+2ene33805 0.0 102852
07:00+1ene338011 0.0 102861
10:00+4ne23683 0.0 1029171
13:00+9n22506 0.0 1027894
16:00+11nne234776 0.0 10251344
19:00+6e24655 0.0 102767
22:00+5e22650 0.0 102918
29 january, sat
sat2901:00+4ene23650 0.0 103029
04:00+4e23650 0.0 103026
07:00+4e22620 0.0 102916
10:00+8ene22490 0.0 103080
13:00+12nnw12390 0.0 1029755
16:00+14nw22340 0.0 10271195
19:00+7ene22470 0.0 102936
22:00+6e22450 0.0 103224